TimeEST,TemperatureF,Dew PointF,Humidity,Sea Level PressureIn,VisibilityMPH,Wind Direction,Wind SpeedMPH,Gust SpeedMPH,PrecipitationIn,Events,Conditions,WindDirDegrees,DateUTC
12:05 AM,17.1,10.9,77,29.95,2.5,West,5.8,-,0.00,Snow,Light Snow,270,2013-01-21 05:05:00
12:17 AM,18.0,10.9,74,29.95,3.0,West,8.1,-,0.00,Snow,Light Snow,270,2013-01-21 05:17:00
12:53 AM,17.1,10.9,77,30.02,3.0,West,8.1,-,0.00,Snow,Light Snow,270,2013-01-21 05:53:00
1:35 AM,17.1,10.9,77,29.94,2.5,West,8.1,-,0.00,Snow,Light Snow,280,2013-01-21 06:35:00
1:43 AM,17.1,10.9,77,29.94,5.0,West,8.1,-,0.00,Snow,Light Snow,270,2013-01-21 06:43:00
1:53 AM,17.1,10.0,74,30.03,7.0,West,10.4,-,0.00,Snow,Light Snow,270,2013-01-21 06:53:00
2:23 AM,17.1,10.0,74,29.94,4.0,WNW,9.2,-,0.00,Snow,Light Snow,290,2013-01-21 07:23:00
2:43 AM,17.1,9.0,71,29.94,9.0,WNW,10.4,-,0.00,,Overcast,290,2013-01-21 07:43:00
2:53 AM,17.1,9.0,71,30.02,10.0,NW,6.9,-,0.00,,Overcast,310,2013-01-21 07:53:00
3:53 AM,17.1,8.1,68,30.02,10.0,Variable,5.8,-,N/A,,Overcast,0,2013-01-21 08:53:00
4:09 AM,17.1,8.1,68,29.92,9.0,Variable,5.8,-,0.00,Snow,Light Snow,0,2013-01-21 09:09:00
4:33 AM,17.1,9.0,71,29.91,8.0,West,3.5,-,0.00,,Overcast,260,2013-01-21 09:33:00
4:53 AM,17.1,8.1,68,30.00,10.0,Variable,4.6,-,0.00,,Overcast,0,2013-01-21 09:53:00
5:14 AM,17.1,9.0,71,29.90,7.0,West,3.5,-,0.00,Snow,Light Snow,270,2013-01-21 10:14:00
5:53 AM,16.0,9.0,74,30.00,2.5,WSW,4.6,-,0.00,Snow,Light Snow,250,2013-01-21 10:53:00
6:48 AM,15.8,10.4,79,29.89,3.0,SW,5.8,-,0.00,Snow,Light Snow,220,2013-01-21 11:48:00
7:38 AM,16.0,10.9,81,29.88,2.5,WSW,3.5,-,0.00,Snow,Light Snow,240,2013-01-21 12:38:00
7:53 AM,16.0,10.9,81,29.98,1.2,SW,3.5,-,0.00,Snow,Light Snow,230,2013-01-21 12:53:00
8:24 AM,17.1,10.9,77,29.87,2.5,SW,4.6,-,0.00,Snow,Light Snow,220,2013-01-21 13:24:00
8:50 AM,15.8,8.6,73,29.87,3.0,SW,5.8,-,0.00,Snow,Light Snow,230,2013-01-21 13:50:00
8:51 AM,16.0,9.0,74,29.97,3.0,SW,4.6,-,0.00,Snow,Light Snow,220,2013-01-21 13:51:00
8:58 AM,16.0,10.0,77,29.87,3.0,WSW,6.9,-,0.00,Snow,Light Snow,250,2013-01-21 13:58:00
9:20 AM,16.0,10.0,77,29.87,2.5,Variable,3.5,-,0.00,Snow,Light Snow,0,2013-01-21 14:20:00
9:31 AM,17.1,9.0,71,29.87,3.0,Variable,4.6,-,0.00,Snow,Light Snow,0,2013-01-21 14:31:00
9:39 AM,16.0,9.0,74,29.87,2.5,Variable,4.6,-,0.00,Snow,Light Snow,0,2013-01-21 14:39:00
9:53 AM,17.1,9.0,71,29.97,3.0,WSW,5.8,-,0.00,Snow,Light Snow,250,2013-01-21 14:53:00
10:12 AM,17.1,9.0,71,29.87,2.5,Variable,5.8,-,0.00,Snow,Light Snow,0,2013-01-21 15:12:00
10:25 AM,17.1,9.0,71,29.86,3.0,Variable,5.8,-,0.00,Snow,Light Snow,0,2013-01-21 15:25:00
10:33 AM,17.1,8.1,68,29.86,2.0,Variable,6.9,-,0.00,Snow,Light Snow,0,2013-01-21 15:33:00
10:46 AM,17.1,9.0,71,29.86,2.0,SW,6.9,-,0.00,Snow,Light Snow,230,2013-01-21 15:46:00
10:53 AM,17.1,9.0,71,29.94,1.8,WSW,6.9,-,0.00,Snow,Light Snow,240,2013-01-21 15:53:00
11:10 AM,17.1,10.0,74,29.84,2.0,SW,6.9,-,0.00,Snow,Light Snow,230,2013-01-21 16:10:00
11:17 AM,17.1,9.0,71,29.83,1.8,SW,5.8,-,0.00,Snow,Light Snow,220,2013-01-21 16:17:00
11:24 AM,17.1,10.0,74,29.83,2.5,Variable,4.6,-,0.00,Snow,Light Snow,0,2013-01-21 16:24:00
11:33 AM,17.1,9.0,71,29.82,3.0,SW,8.1,-,0.00,Snow,Light Snow,230,2013-01-21 16:33:00
11:53 AM,18.0,8.1,65,29.90,4.0,Variable,6.9,-,0.00,Snow,Light Snow,0,2013-01-21 16:53:00
12:13 PM,17.1,9.0,71,29.80,2.0,WSW,8.1,-,0.00,Snow,Light Snow,240,2013-01-21 17:13:00
12:20 PM,17.1,8.1,68,29.79,1.5,SW,5.8,-,0.00,Snow,Light Snow,230,2013-01-21 17:20:00
12:45 PM,17.1,9.0,71,29.78,2.0,West,8.1,-,0.00,Snow,Light Snow,260,2013-01-21 17:45:00
12:53 PM,17.1,9.0,71,29.87,2.0,Variable,6.9,-,0.00,Snow,Light Snow,0,2013-01-21 17:53:00
1:13 PM,17.1,10.0,74,29.77,1.0,Variable,6.9,-,0.00,Snow,Light Snow,0,2013-01-21 18:13:00
1:21 PM,16.0,10.0,77,29.77,0.5,WSW,6.9,-,0.00,Snow,Snow,240,2013-01-21 18:21:00
1:41 PM,16.0,10.9,81,29.76,0.5,WSW,6.9,-,0.00,Snow,Snow,240,2013-01-21 18:41:00
1:53 PM,16.0,9.0,74,29.86,1.0,SW,9.2,17.3,0.00,Snow,Light Snow,230,2013-01-21 18:53:00
1:58 PM,16.0,9.0,74,29.76,2.0,SW,11.5,18.4,0.00,Snow,Light Snow,220,2013-01-21 18:58:00
2:05 PM,16.0,8.1,71,29.76,3.0,WSW,9.2,18.4,0.00,Snow,Light Snow,250,2013-01-21 19:05:00
2:53 PM,17.1,6.1,62,29.85,10.0,WSW,9.2,-,0.00,,Overcast,240,2013-01-21 19:53:00
3:53 PM,17.1,6.1,62,29.86,5.0,West,5.8,20.7,0.00,Snow,Light Snow,260,2013-01-21 20:53:00
4:38 PM,16.0,7.0,68,29.77,3.0,WNW,6.9,-,0.00,Snow,Light Snow,290,2013-01-21 21:38:00
4:53 PM,16.0,6.1,65,29.87,10.0,West,9.2,-,0.00,,Mostly Cloudy,270,2013-01-21 21:53:00
5:14 PM,15.1,5.0,64,29.78,10.0,West,6.9,-,N/A,,Partly Cloudy,270,2013-01-21 22:14:00
5:53 PM,15.1,3.9,61,29.88,9.0,WSW,5.8,-,0.00,,Mostly Cloudy,240,2013-01-21 22:53:00
6:53 PM,14.0,3.0,62,29.90,10.0,West,12.7,19.6,N/A,,Scattered Clouds,260,2013-01-21 23:53:00
7:53 PM,12.9,1.9,62,29.90,10.0,West,8.1,-,N/A,,Clear,260,2013-01-22 00:53:00
8:09 PM,12.9,3.0,65,29.79,10.0,West,10.4,18.4,N/A,,Mostly Cloudy,270,2013-01-22 01:09:00
8:32 PM,12.9,1.0,59,29.79,10.0,West,9.2,19.6,N/A,,Scattered Clouds,270,2013-01-22 01:32:00
8:53 PM,12.0,1.0,61,29.90,10.0,West,11.5,-,N/A,,Clear,260,2013-01-22 01:53:00
9:13 PM,12.0,1.0,61,29.80,10.0,WSW,9.2,-,N/A,,Mostly Cloudy,250,2013-01-22 02:13:00
9:43 PM,10.9,1.0,64,29.80,6.0,West,11.5,23.0,N/A,,Haze,270,2013-01-22 02:43:00
9:53 PM,10.9,1.0,64,29.91,6.0,West,6.9,17.3,N/A,,Haze,270,2013-01-22 02:53:00
10:11 PM,10.9,-0.0,61,29.80,6.0,West,10.4,21.9,0.00,,Overcast,270,2013-01-22 03:11:00
10:53 PM,9.0,1.0,70,29.91,5.0,West,12.7,20.7,0.00,,Haze,270,2013-01-22 03:53:00
11:17 PM,9.0,1.9,73,29.80,1.8,West,12.7,-,0.00,Snow,Light Snow,270,2013-01-22 04:17:00
11:30 PM,9.0,1.9,73,29.80,3.0,Variable,6.9,-,0.00,Snow,Light Snow,0,2013-01-22 04:30:00
11:53 PM,9.0,1.9,73,29.90,3.0,West,8.1,19.6,0.00,Snow,Light Snow,270,2013-01-22 04:53:00